アフリカーノ彗星

C/2018 W2 ( Africano )

English version
Home page
Updated on August 7, 2019

---------------------------------------------------------------------

・ プロフィール

発見日 2018年11月27日
発見光度 18.3等、18.2等
発見者 B. M. Africano (Mount Lemmon), H. Groeller (Catalina Sky Survey)

・ 写真集

・ 軌道要素

Epoch 2019 Aug. 25.0 TT = JDT 2458720.5
T 2019 Sept. 5.72827 TT                                 MPCW
q   1.4546930            (2000.0)            P               Q
z  -0.0005384      Peri.  157.97186     +0.92109259     +0.38827254
 +/-0.0000033      Node   181.84984     +0.04815688     -0.04005962
e   1.0007832      Incl.  116.61575     +0.38635392     -0.92067348
From 439 observations 2018 Nov. 27-2019 May 23, mean residual 0".5.

・ 星図

・ 光度変化

        m1 = 7.0 + 5 logΔ + 14.0 log r

---------------------------------------------------------------------

軌道要素はM.P.E.C. 2019-L24に掲載されたものです。
星図はステラナビゲータ Ver.10 (アストロアーツ) で作成したものです。
光度グラフはComet for Windowsで作成したものです。

---------------------------------------------------------------------

Copyright(C) Seiichi Yoshida (comet@aerith.net). All rights reserved.